EDRS-C 1 44475U 19049A 21062.46495172 .00000145 00000-0 00000-0 0 9996 2 44475 0.0775 277.6036 0000838 77.7271 4.6472 1.00271115 5833 INTELSAT 39 (IS-39) 1 44476U 19049B 21062.80535708 .00000024 00000-0 00000-0 0 9991 2 44476 0.0216 146.0566 0001460 359.9644 7.6333 1.00270643 5791 ARIANE 5 R/B 1 44477U 19049C 21062.58736600 .00012755 00000-0 10773-2 0 9995 2 44477 4.0811 189.5622 7212517 309.1185 6.4145 2.39365747 13434 ARIANE 5 DEB [SYLDA] 1 44478U 19049D 21062.31510735 .00043683 00000-0 61880-2 0 9995 2 44478 4.3050 167.3572 6922837 357.3405 0.3298 2.75742803 14618